sat.trackr.live / text

‹ back to catalog

STARLINK-30578

NORAD 58093 · 2023-160U

PAYLOAD ACTIVE UNKNOWN

§ Identity

Operator
Country
US
Launch date
2023-10-18
Launch site
AFETR
Launch vehicle
Mass (kg)
RCS (m²)

Purposes: comms

External: N2YO · Heavens-Above · Gunter

§ Orbital elements

Epoch: 2026-05-25T00:52:40.118016Z

Period
94.27 min
Inclination
43.0047°
Eccentricity
0.0000872
Mean motion
15.27591330 rev/d
Perigee alt
482.4 km
Apogee alt
483.6 km
Semi-major
6,861.2 km
B*
6.4578e-6
RAAN
6.5741°
Arg perigee
271.3848°
Mean anomaly
88.6904°
Rev number
14,462

§ Raw data

STARLINK-305781 58093U 23160U   26145.03657544 -.00000084  00000+0  64578-5 0  99962 58093  43.0047   6.5741 0000872 271.3848  88.6904 15.27591330144626

JSON: /api/v1/satellites/58093 · /tle

For live sub-satellite position, see the globe view (requires WebGL).

§ Visibility from observer

Set your observer location to see the next 7 days of passes ≥ 10°. The values pass through the URL so the page stays shareable.

No JS? Fill the form by hand. The geolocation button needs JavaScript.